Location: ??????
(55.7522°N, 37.6156°E)
Time: 17:12:46
(UTC+00:00)

USA 234 - Pass Details

Date: 14 June 2025
Orbit: 1097 x 1111 km, 123.0° (Epoch: 19 June)

Event Time Altitude Azimuth Distance (km) Brightness Sun altitude
Rises 22:47:33 0° 65° (ENE) 3,918 6.9 -9.2°
Reaches altitude 10° 22:50:06 10° 69° (ENE) 2,960 6.1 -9.1°
Maximum altitude 22:56:32 57° 148° (SSE) 1,276 3.4 -8.8°
Drops below altitude 10° 23:02:57 10° 226° (SW) 2,958 5.0 -8.5°
Enters shadow 23:03:50 - 228° (SW) 3,290 5.2 -8.5°
